Time,TemperatureF,DewpointF,PressureIn,WindDirection,WindDirectionDegrees,WindSpeedMPH,WindSpeedGustMPH,Humidity,HourlyPrecipIn,Conditions,Clouds,dailyrainin,SoftwareType,DateUTC
2013-01-26 00:00:00,24.4,18.3,30.06,ESE,112,0.0,0.0,77,0.00,,CLR,0.00,VWS V12.08,2013-01-26 05:00:00,
2013-01-26 00:04:00,24.4,18.3,30.06,ESE,112,0.0,0.0,77,0.00,,CLR,0.00,VWS V12.08,2013-01-26 05:04:00,
2013-01-26 00:09:00,24.4,18.3,30.05,ESE,112,0.0,0.0,77,0.00,,CLR,0.00,VWS V12.08,2013-01-26 05:09:00,
2013-01-26 00:14:00,24.6,18.8,30.05,ESE,112,0.0,0.0,78,0.00,,CLR,0.00,VWS V12.08,2013-01-26 05:14:00,
2013-01-26 00:19:00,24.6,18.8,30.05,ESE,112,0.0,0.0,78,0.00,,CLR,0.00,VWS V12.08,2013-01-26 05:19:00,
2013-01-26 00:24:00,24.6,18.8,30.05,ESE,112,0.0,0.0,78,0.00,,CLR,0.00,VWS V12.08,2013-01-26 05:24:00,
2013-01-26 00:29:00,24.6,18.8,30.05,ESE,112,0.0,0.0,78,0.00,,CLR,0.00,VWS V12.08,2013-01-26 05:29:00,
2013-01-26 00:34:00,24.6,18.8,30.06,ESE,112,0.0,0.0,78,0.00,,CLR,0.00,VWS V12.08,2013-01-26 05:34:00,
2013-01-26 00:39:00,24.6,18.8,30.06,ESE,112,0.0,0.0,78,0.00,,CLR,0.00,VWS V12.08,2013-01-26 05:39:00,
2013-01-26 00:44:00,25.0,19.1,30.05,ESE,112,0.0,0.0,78,0.00,,CLR,0.00,VWS V12.08,2013-01-26 05:44:00,
2013-01-26 00:49:00,25.0,19.1,30.05,ESE,112,0.0,0.0,78,0.00,,CLR,0.00,VWS V12.08,2013-01-26 05:49:00,
2013-01-26 00:54:00,24.8,18.6,30.05,ESE,112,0.0,0.0,77,0.00,,CLR,0.00,VWS V12.08,2013-01-26 05:54:00,
2013-01-26 00:59:00,25.0,18.8,30.05,ESE,112,0.0,0.0,77,0.00,,CLR,0.00,VWS V12.08,2013-01-26 05:59:00,
2013-01-26 01:04:00,25.0,18.8,30.06,ESE,112,0.0,0.0,77,0.00,,CLR,0.00,VWS V12.08,2013-01-26 06:04:00,
2013-01-26 01:09:00,25.0,19.1,30.05,ESE,112,0.0,0.0,78,0.00,,CLR,0.00,VWS V12.08,2013-01-26 06:09:00,
2013-01-26 01:14:00,25.0,19.1,30.05,ESE,112,0.0,0.0,78,0.00,,CLR,0.00,VWS V12.08,2013-01-26 06:14:00,
2013-01-26 01:19:00,25.0,19.1,30.05,ESE,112,0.0,0.0,78,0.00,,CLR,0.00,VWS V12.08,2013-01-26 06:19:00,
2013-01-26 01:24:00,25.0,18.8,30.05,ESE,112,0.0,0.0,77,0.00,,CLR,0.00,VWS V12.08,2013-01-26 06:24:00,
2013-01-26 01:29:00,25.2,19.3,30.05,ESE,112,0.0,0.0,78,0.00,,CLR,0.00,VWS V12.08,2013-01-26 06:29:00,
2013-01-26 01:34:00,25.2,19.3,30.05,ESE,112,0.0,0.0,78,0.00,,CLR,0.00,VWS V12.08,2013-01-26 06:34:00,
2013-01-26 01:39:00,25.3,19.5,30.04,ESE,112,0.0,0.0,78,0.00,,CLR,0.00,VWS V12.08,2013-01-26 06:39:00,
2013-01-26 01:44:00,25.3,19.5,30.04,ESE,112,0.0,0.0,78,0.00,,CLR,0.00,VWS V12.08,2013-01-26 06:44:00,
2013-01-26 01:49:00,25.3,19.5,30.04,ESE,112,0.0,0.0,78,0.00,,CLR,0.00,VWS V12.08,2013-01-26 06:49:00,
2013-01-26 01:54:00,25.5,19.6,30.05,ESE,112,0.0,0.0,78,0.00,,CLR,0.00,VWS V12.08,2013-01-26 06:54:00,
2013-01-26 01:59:00,25.5,19.6,30.05,ESE,112,0.0,0.0,78,0.00,,CLR,0.00,VWS V12.08,2013-01-26 06:59:00,
2013-01-26 02:04:00,25.5,19.6,30.05,ESE,112,0.0,0.0,78,0.00,,CLR,0.00,VWS V12.08,2013-01-26 07:04:00,
2013-01-26 02:09:00,25.5,19.6,30.06,ESE,112,0.0,0.0,78,0.00,,CLR,0.00,VWS V12.08,2013-01-26 07:09:00,
2013-01-26 02:14:00,25.5,19.6,30.05,ESE,112,0.0,0.0,78,0.00,,CLR,0.00,VWS V12.08,2013-01-26 07:14:00,
2013-01-26 02:19:00,25.7,20.1,30.05,ESE,112,0.0,0.0,79,0.00,,CLR,0.00,VWS V12.08,2013-01-26 07:19:00,
2013-01-26 02:24:00,25.7,20.1,30.05,ESE,112,0.0,0.0,79,0.00,,CLR,0.00,VWS V12.08,2013-01-26 07:24:00,
2013-01-26 02:29:00,25.7,20.1,30.05,ESE,112,0.0,0.0,79,0.00,,CLR,0.00,VWS V12.08,2013-01-26 07:29:00,
2013-01-26 02:34:00,25.7,20.1,30.05,ESE,112,0.0,0.0,79,0.00,,CLR,0.00,VWS V12.08,2013-01-26 07:34:00,
2013-01-26 02:39:00,25.7,20.1,30.05,ESE,112,0.0,0.0,79,0.00,,CLR,0.00,VWS V12.08,2013-01-26 07:39:00,
2013-01-26 02:44:00,25.7,20.1,30.04,ESE,112,0.0,0.0,79,0.00,,CLR,0.00,VWS V12.08,2013-01-26 07:44:00,
2013-01-26 02:49:00,25.7,20.1,30.05,ESE,112,0.0,0.0,79,0.00,,CLR,0.00,VWS V12.08,2013-01-26 07:49:00,
2013-01-26 02:54:00,25.5,19.6,30.05,ESE,112,0.0,0.0,78,0.00,,CLR,0.00,VWS V12.08,2013-01-26 07:54:00,
2013-01-26 02:59:00,25.3,19.5,30.05,ESE,112,0.0,0.0,78,0.00,,CLR,0.00,VWS V12.08,2013-01-26 07:59:00,
2013-01-26 03:04:00,25.2,19.3,30.05,ESE,112,0.0,0.0,78,0.00,,CLR,0.00,VWS V12.08,2013-01-26 08:04:00,
2013-01-26 03:09:00,25.0,19.1,30.05,ESE,112,0.0,0.0,78,0.00,,CLR,0.00,VWS V12.08,2013-01-26 08:09:00,
2013-01-26 03:14:00,25.0,19.1,30.04,NW,315,0.0,0.0,78,0.00,,CLR,0.00,VWS V12.08,2013-01-26 08:14:00,
2013-01-26 03:19:00,24.6,18.8,30.05,WNW,292,0.0,0.0,78,0.00,,CLR,0.00,VWS V12.08,2013-01-26 08:19:00,
2013-01-26 03:24:00,24.6,18.8,30.04,WNW,292,0.0,0.0,78,0.00,,CLR,0.00,VWS V12.08,2013-01-26 08:24:00,
2013-01-26 03:29:00,24.6,19.0,30.04,SSW,202,0.0,0.0,79,0.00,,CLR,0.00,VWS V12.08,2013-01-26 08:29:00,
2013-01-26 03:34:00,24.6,19.0,30.04,SSE,158,0.0,0.0,79,0.00,,CLR,0.00,VWS V12.08,2013-01-26 08:34:00,
2013-01-26 03:39:00,24.6,19.0,30.04,SE,135,0.0,0.0,79,0.00,,CLR,0.00,VWS V12.08,2013-01-26 08:39:00,
2013-01-26 03:44:00,25.0,19.4,30.04,SE,135,0.0,0.0,79,0.00,,CLR,0.00,VWS V12.08,2013-01-26 08:44:00,
2013-01-26 03:49:00,25.0,19.4,30.04,East,90,0.0,0.0,79,0.00,,CLR,0.00,VWS V12.08,2013-01-26 08:49:00,
2013-01-26 03:54:00,25.0,19.4,30.04,East,90,0.0,0.0,79,0.00,,CLR,0.00,VWS V12.08,2013-01-26 08:54:00,
2013-01-26 03:59:00,24.6,19.0,30.04,West,270,0.0,0.0,79,0.00,,CLR,0.00,VWS V12.08,2013-01-26 08:59:00,
2013-01-26 04:04:00,24.8,19.2,30.04,West,270,0.0,0.0,79,0.00,,CLR,0.00,VWS V12.08,2013-01-26 09:04:00,
2013-01-26 04:09:00,25.0,19.4,30.04,West,270,0.0,0.0,79,0.00,,CLR,0.00,VWS V12.08,2013-01-26 09:09:00,
2013-01-26 04:14:00,25.0,19.7,30.04,WNW,292,0.0,0.0,80,0.00,,CLR,0.00,VWS V12.08,2013-01-26 09:14:00,
2013-01-26 04:19:00,24.8,19.2,30.04,WNW,292,0.0,0.0,79,0.00,,CLR,0.00,VWS V12.08,2013-01-26 09:19:00,
2013-01-26 04:24:00,24.8,19.2,30.04,WNW,292,0.0,0.0,79,0.00,,CLR,0.00,VWS V12.08,2013-01-26 09:24:00,
2013-01-26 04:29:00,24.4,18.9,30.04,WNW,292,0.0,0.0,79,0.00,,CLR,0.00,VWS V12.08,2013-01-26 09:29:00,
2013-01-26 04:34:00,24.4,18.9,30.04,WNW,292,0.0,0.0,79,0.00,,CLR,0.00,VWS V12.08,2013-01-26 09:34:00,
2013-01-26 04:39:00,24.3,18.7,30.04,WNW,292,0.0,0.0,79,0.00,,CLR,0.00,VWS V12.08,2013-01-26 09:39:00,
2013-01-26 04:44:00,24.3,18.7,30.05,WNW,292,0.0,0.0,79,0.00,,CLR,0.00,VWS V12.08,2013-01-26 09:44:00,
2013-01-26 04:49:00,24.1,18.5,30.05,NW,315,0.0,0.0,79,0.00,,CLR,0.00,VWS V12.08,2013-01-26 09:49:00,
2013-01-26 04:54:00,24.4,18.9,30.05,WNW,292,0.0,0.0,79,0.00,,CLR,0.00,VWS V12.08,2013-01-26 09:54:00,
2013-01-26 04:59:00,24.4,18.9,30.05,WNW,292,0.0,0.0,79,0.00,,CLR,0.00,VWS V12.08,2013-01-26 09:59:00,
2013-01-26 05:04:00,24.6,19.0,30.05,WNW,292,0.0,0.0,79,0.00,,CLR,0.00,VWS V12.08,2013-01-26 10:04:00,
2013-01-26 05:09:00,24.6,19.0,30.05,WNW,292,0.0,0.0,79,0.00,,CLR,0.00,VWS V12.08,2013-01-26 10:09:00,
2013-01-26 05:14:00,25.0,19.7,30.04,SSE,158,0.0,0.0,80,0.00,,CLR,0.00,VWS V12.08,2013-01-26 10:14:00,
2013-01-26 05:19:00,25.0,19.7,30.05,West,270,0.0,0.0,80,0.00,,CLR,0.00,VWS V12.08,2013-01-26 10:19:00,
2013-01-26 05:24:00,25.0,19.7,30.05,West,270,0.0,0.0,80,0.00,,CLR,0.00,VWS V12.08,2013-01-26 10:24:00,
2013-01-26 05:29:00,25.0,19.7,30.05,West,270,0.0,0.0,80,0.00,,CLR,0.00,VWS V12.08,2013-01-26 10:29:00,
2013-01-26 05:34:00,25.0,19.7,30.05,West,270,0.0,0.0,80,0.00,,CLR,0.00,VWS V12.08,2013-01-26 10:34:00,
2013-01-26 05:39:00,25.0,19.4,30.05,WSW,248,0.0,0.0,79,0.00,,CLR,0.00,VWS V12.08,2013-01-26 10:39:00,
2013-01-26 05:44:00,25.0,19.4,30.04,WSW,248,0.0,0.0,79,0.00,,CLR,0.00,VWS V12.08,2013-01-26 10:44:00,
2013-01-26 05:49:00,25.0,19.4,30.04,WSW,248,0.0,0.0,79,0.00,,CLR,0.00,VWS V12.08,2013-01-26 10:49:00,
2013-01-26 05:54:00,25.0,19.7,30.05,WSW,248,0.0,0.0,80,0.00,,CLR,0.00,VWS V12.08,2013-01-26 10:54:00,
2013-01-26 05:59:00,25.2,19.9,30.05,WSW,248,0.0,0.0,80,0.00,,CLR,0.00,VWS V12.08,2013-01-26 10:59:00,
2013-01-26 06:04:00,25.0,19.7,30.06,WSW,248,0.0,0.0,80,0.00,,CLR,0.00,VWS V12.08,2013-01-26 11:04:00,
2013-01-26 06:09:00,25.0,19.7,30.06,WSW,248,0.0,0.0,80,0.00,,CLR,0.00,VWS V12.08,2013-01-26 11:09:00,
2013-01-26 06:14:00,25.3,20.0,30.06,East,90,0.0,0.0,80,0.00,,CLR,0.00,VWS V12.08,2013-01-26 11:14:00,
2013-01-26 06:19:00,25.7,20.4,30.05,West,270,0.0,0.0,80,0.00,,CLR,0.00,VWS V12.08,2013-01-26 11:19:00,
2013-01-26 06:24:00,25.7,20.4,30.06,West,270,0.0,0.0,80,0.00,,CLR,0.00,VWS V12.08,2013-01-26 11:24:00,
2013-01-26 06:29:00,26.8,21.7,30.06,West,270,0.0,0.0,81,0.00,,CLR,0.00,VWS V12.08,2013-01-26 11:29:00,
2013-01-26 06:34:00,26.8,21.7,30.06,West,270,0.0,0.0,81,0.00,,CLR,0.00,VWS V12.08,2013-01-26 11:34:00,
2013-01-26 06:39:00,27.0,21.9,30.06,West,270,0.0,0.0,81,0.00,,CLR,0.00,VWS V12.08,2013-01-26 11:39:00,
2013-01-26 06:44:00,26.8,21.5,30.07,ENE,68,0.0,0.0,80,0.00,,CLR,0.00,VWS V12.08,2013-01-26 11:44:00,
2013-01-26 06:49:00,26.4,21.1,30.08,ENE,68,0.0,0.0,80,0.00,,CLR,0.00,VWS V12.08,2013-01-26 11:49:00,
2013-01-26 06:54:00,26.4,21.1,30.08,ENE,68,0.0,0.0,80,0.00,,CLR,0.00,VWS V12.08,2013-01-26 11:54:00,
2013-01-26 06:59:00,26.4,21.1,30.09,ENE,68,0.0,0.0,80,0.00,,CLR,0.00,VWS V12.08,2013-01-26 11:59:00,
2013-01-26 07:04:00,26.4,21.1,30.09,ENE,68,0.0,0.0,80,0.00,,CLR,0.00,VWS V12.08,2013-01-26 12:04:00,
2013-01-26 07:09:00,26.4,21.1,30.09,ENE,68,0.0,0.0,80,0.00,,CLR,0.00,VWS V12.08,2013-01-26 12:09:00,
2013-01-26 07:14:00,26.2,20.9,30.10,ENE,68,0.0,0.0,80,0.00,,CLR,0.00,VWS V12.08,2013-01-26 12:14:00,
2013-01-26 07:19:00,26.2,20.9,30.10,ENE,68,0.0,0.0,80,0.00,,CLR,0.00,VWS V12.08,2013-01-26 12:19:00,
2013-01-26 07:24:00,26.2,20.9,30.10,ENE,68,0.0,0.0,80,0.00,,CLR,0.00,VWS V12.08,2013-01-26 12:24:00,
2013-01-26 07:29:00,26.4,21.1,30.10,SE,135,0.0,0.0,80,0.00,,CLR,0.00,VWS V12.08,2013-01-26 12:29:00,
2013-01-26 07:34:00,26.8,21.5,30.10,SE,135,0.0,0.0,80,0.00,,CLR,0.00,VWS V12.08,2013-01-26 12:34:00,
2013-01-26 07:39:00,26.8,21.5,30.11,SE,135,0.0,0.0,80,0.00,,CLR,0.00,VWS V12.08,2013-01-26 12:39:00,
2013-01-26 07:44:00,27.1,22.1,30.10,SE,135,0.0,0.0,81,0.00,,CLR,0.00,VWS V12.08,2013-01-26 12:44:00,
2013-01-26 07:49:00,27.1,22.1,30.10,SE,135,0.0,0.0,81,0.00,,CLR,0.00,VWS V12.08,2013-01-26 12:49:00,
2013-01-26 07:54:00,27.5,22.5,30.10,SE,135,0.0,0.0,81,0.00,,CLR,0.00,VWS V12.08,2013-01-26 12:54:00,
2013-01-26 07:59:00,27.7,22.6,30.10,SE,135,0.0,0.0,81,0.00,,CLR,0.00,VWS V12.08,2013-01-26 12:59:00,
2013-01-26 08:04:00,28.0,23.0,30.11,SE,135,0.0,0.0,81,0.00,,CLR,0.00,VWS V12.08,2013-01-26 13:04:00,
2013-01-26 08:09:00,28.0,23.0,30.11,SE,135,0.0,0.0,81,0.00,,CLR,0.00,VWS V12.08,2013-01-26 13:09:00,
2013-01-26 08:14:00,28.0,23.0,30.11,SE,135,0.0,0.0,81,0.00,,CLR,0.00,VWS V12.08,2013-01-26 13:14:00,
2013-01-26 08:19:00,28.0,23.0,30.11,SE,135,0.0,0.0,81,0.00,,CLR,0.00,VWS V12.08,2013-01-26 13:19:00,
2013-01-26 08:24:00,28.0,23.0,30.11,SE,135,0.0,0.0,81,0.00,,CLR,0.00,VWS V12.08,2013-01-26 13:24:00,
2013-01-26 08:29:00,28.2,23.1,30.11,SE,135,0.0,0.0,81,0.00,,CLR,0.00,VWS V12.08,2013-01-26 13:29:00,
2013-01-26 08:34:00,28.6,23.5,30.11,SE,135,0.0,0.0,81,0.00,,CLR,0.00,VWS V12.08,2013-01-26 13:34:00,
2013-01-26 08:39:00,28.8,23.7,30.11,SE,135,0.0,0.0,81,0.00,,CLR,0.00,VWS V12.08,2013-01-26 13:39:00,
2013-01-26 08:44:00,28.9,23.9,30.12,SE,135,0.0,0.0,81,0.00,,CLR,0.00,VWS V12.08,2013-01-26 13:44:00,
2013-01-26 08:49:00,29.1,24.0,30.12,SE,135,0.0,0.0,81,0.00,,CLR,0.00,VWS V12.08,2013-01-26 13:49:00,
2013-01-26 08:54:00,29.8,25.0,30.12,SE,135,0.0,0.0,82,0.00,,CLR,0.00,VWS V12.08,2013-01-26 13:54:00,
2013-01-26 08:59:00,30.0,25.2,30.13,SE,135,0.0,0.0,82,0.00,,CLR,0.00,VWS V12.08,2013-01-26 13:59:00,
2013-01-26 09:04:00,30.0,25.2,30.13,SE,135,0.0,0.0,82,0.00,,CLR,0.00,VWS V12.08,2013-01-26 14:04:00,
2013-01-26 09:09:00,30.6,25.7,30.14,SE,135,0.0,0.0,82,0.00,,CLR,0.00,VWS V12.08,2013-01-26 14:09:00,
2013-01-26 09:14:00,30.9,26.1,30.14,SE,135,0.0,0.0,82,0.00,,CLR,0.00,VWS V12.08,2013-01-26 14:14:00,
2013-01-26 09:19:00,31.3,26.4,30.14,SE,135,0.0,0.0,82,0.00,,CLR,0.00,VWS V12.08,2013-01-26 14:19:00,
2013-01-26 09:24:00,31.6,26.8,30.14,SE,135,0.0,0.0,82,0.00,,CLR,0.00,VWS V12.08,2013-01-26 14:24:00,
2013-01-26 09:29:00,31.6,26.8,30.14,SE,135,0.0,0.0,82,0.00,,CLR,0.00,VWS V12.08,2013-01-26 14:29:00,
2013-01-26 09:34:00,32.4,27.5,30.14,SE,135,0.0,0.0,82,0.00,,CLR,0.00,VWS V12.08,2013-01-26 14:34:00,
2013-01-26 09:39:00,32.4,27.5,30.15,SE,135,0.0,0.0,82,0.00,,CLR,0.00,VWS V12.08,2013-01-26 14:39:00,
2013-01-26 09:44:00,32.5,27.7,30.16,SE,135,0.0,0.0,82,0.00,,CLR,0.00,VWS V12.08,2013-01-26 14:44:00,
2013-01-26 09:49:00,32.5,27.7,30.16,SE,135,0.0,0.0,82,0.00,,CLR,0.00,VWS V12.08,2013-01-26 14:49:00,
2013-01-26 09:54:00,32.9,28.0,30.16,SE,135,0.0,0.0,82,0.00,,CLR,0.00,VWS V12.08,2013-01-26 14:54:00,
2013-01-26 09:59:00,33.1,28.2,30.16,SE,135,0.0,0.0,82,0.00,,CLR,0.00,VWS V12.08,2013-01-26 14:59:00,
2013-01-26 10:04:00,33.3,28.4,30.16,SE,135,0.0,0.0,82,0.00,,CLR,0.00,VWS V12.08,2013-01-26 15:04:00,
2013-01-26 10:09:00,33.3,28.4,30.17,SE,135,0.0,0.0,82,0.00,,CLR,0.00,VWS V12.08,2013-01-26 15:09:00,
2013-01-26 10:14:00,34.0,28.8,30.17,SE,135,0.0,0.0,81,0.00,,CLR,0.00,VWS V12.08,2013-01-26 15:14:00,
2013-01-26 10:19:00,34.3,29.1,30.17,SE,135,0.0,0.0,81,0.00,,CLR,0.00,VWS V12.08,2013-01-26 15:19:00,
2013-01-26 10:24:00,34.5,29.3,30.17,SE,135,0.0,0.0,81,0.00,,CLR,0.00,VWS V12.08,2013-01-26 15:24:00,
2013-01-26 10:29:00,34.9,29.6,30.17,SE,135,0.0,0.0,81,0.00,,CLR,0.00,VWS V12.08,2013-01-26 15:29:00,
2013-01-26 10:34:00,35.2,30.0,30.17,SE,135,0.0,0.0,81,0.00,,CLR,0.00,VWS V12.08,2013-01-26 15:34:00,
2013-01-26 10:39:00,35.4,30.2,30.17,SE,135,0.0,0.0,81,0.00,,CLR,0.00,VWS V12.08,2013-01-26 15:39:00,
2013-01-26 10:44:00,35.6,30.4,30.17,SE,135,0.0,0.0,81,0.00,,CLR,0.00,VWS V12.08,2013-01-26 15:44:00,
2013-01-26 10:49:00,35.8,30.5,30.17,SE,135,0.0,0.0,81,0.00,,CLR,0.00,VWS V12.08,2013-01-26 15:49:00,
2013-01-26 10:54:00,35.8,30.5,30.18,SE,135,0.0,0.0,81,0.00,,CLR,0.00,VWS V12.08,2013-01-26 15:54:00,
2013-01-26 10:59:00,36.3,31.1,30.18,SE,135,0.0,0.0,81,0.00,,CLR,0.00,VWS V12.08,2013-01-26 15:59:00,
2013-01-26 11:04:00,36.5,30.9,30.18,SE,135,0.0,0.0,80,0.02,,CLR,0.02,VWS V12.08,2013-01-26 16:04:00,
2013-01-26 11:09:00,36.7,31.1,30.18,SE,135,0.0,0.0,80,0.02,,CLR,0.02,VWS V12.08,2013-01-26 16:09:00,
2013-01-26 11:14:00,37.0,31.5,30.18,SE,135,0.0,0.0,80,0.02,,CLR,0.02,VWS V12.08,2013-01-26 16:14:00,
2013-01-26 11:19:00,37.0,31.5,30.18,SE,135,0.0,0.0,80,0.02,,CLR,0.02,VWS V12.08,2013-01-26 16:19:00,
2013-01-26 11:24:00,37.2,31.6,30.18,SE,135,0.0,0.0,80,0.02,,CLR,0.02,VWS V12.08,2013-01-26 16:24:00,
2013-01-26 11:29:00,37.6,32.0,30.18,SE,135,0.0,0.0,80,0.02,,CLR,0.02,VWS V12.08,2013-01-26 16:29:00,
2013-01-26 11:34:00,37.8,31.8,30.18,SE,135,0.0,0.0,79,0.02,,CLR,0.02,VWS V12.08,2013-01-26 16:34:00,
2013-01-26 11:39:00,37.9,32.0,30.19,SE,135,0.0,0.0,79,0.04,,CLR,0.04,VWS V12.08,2013-01-26 16:39:00,
2013-01-26 11:44:00,37.9,32.0,30.18,SE,135,0.0,0.0,79,0.04,,CLR,0.04,VWS V12.08,2013-01-26 16:44:00,
2013-01-26 11:49:00,38.1,32.2,30.18,SSE,158,0.0,0.0,79,0.04,,CLR,0.04,VWS V12.08,2013-01-26 16:49:00,
2013-01-26 11:54:00,38.1,32.2,30.18,SSE,158,0.0,0.0,79,0.04,,CLR,0.04,VWS V12.08,2013-01-26 16:54:00,
2013-01-26 11:59:00,38.3,32.0,30.18,SE,135,0.0,0.0,78,0.04,,CLR,0.04,VWS V12.08,2013-01-26 16:59:00,
2013-01-26 12:04:00,38.5,32.2,30.18,SSE,158,0.0,0.0,78,0.02,,CLR,0.04,VWS V12.08,2013-01-26 17:04:00,
2013-01-26 12:09:00,38.5,31.9,30.18,SE,135,0.0,0.0,77,0.02,,CLR,0.04,VWS V12.08,2013-01-26 17:09:00,
2013-01-26 12:14:00,38.8,32.3,30.17,SE,135,0.0,0.0,77,0.02,,CLR,0.04,VWS V12.08,2013-01-26 17:14:00,
2013-01-26 12:19:00,39.0,32.4,30.17,SE,135,0.0,0.0,77,0.02,,CLR,0.04,VWS V12.08,2013-01-26 17:19:00,
2013-01-26 12:24:00,39.0,32.4,30.17,SE,135,0.0,0.0,77,0.02,,CLR,0.04,VWS V12.08,2013-01-26 17:24:00,
2013-01-26 12:29:00,39.0,32.1,30.17,SE,135,0.0,0.0,76,0.02,,CLR,0.04,VWS V12.08,2013-01-26 17:29:00,
2013-01-26 12:34:00,39.0,32.1,30.16,SE,135,0.0,0.0,76,0.00,,CLR,0.04,VWS V12.08,2013-01-26 17:34:00,
2013-01-26 12:39:00,39.2,32.3,30.16,SE,135,0.0,0.0,76,0.00,,CLR,0.04,VWS V12.08,2013-01-26 17:39:00,
2013-01-26 12:44:00,39.2,31.6,30.16,ESE,112,0.0,0.0,74,0.00,,CLR,0.04,VWS V12.08,2013-01-26 17:44:00,
2013-01-26 12:49:00,39.4,31.8,30.16,ESE,112,0.0,0.0,74,0.00,,CLR,0.04,VWS V12.08,2013-01-26 17:49:00,
2013-01-26 12:54:00,39.4,31.8,30.16,ESE,112,0.0,0.0,74,0.00,,CLR,0.04,VWS V12.08,2013-01-26 17:54:00,
2013-01-26 12:59:00,39.9,32.0,30.16,ESE,112,0.0,0.0,73,0.00,,CLR,0.04,VWS V12.08,2013-01-26 17:59:00,
2013-01-26 13:04:00,39.9,32.0,30.16,ESE,112,0.0,0.0,73,0.00,,CLR,0.04,VWS V12.08,2013-01-26 18:04:00,
2013-01-26 13:09:00,39.9,31.6,30.17,ESE,112,0.0,0.0,72,0.00,,CLR,0.04,VWS V12.08,2013-01-26 18:09:00,
2013-01-26 13:14:00,40.3,32.0,30.16,ESE,112,0.0,0.0,72,0.00,,CLR,0.04,VWS V12.08,2013-01-26 18:14:00,
2013-01-26 13:19:00,40.6,32.0,30.17,ESE,112,0.0,0.0,71,0.00,,CLR,0.04,VWS V12.08,2013-01-26 18:19:00,
2013-01-26 13:24:00,40.8,31.8,30.16,ESE,112,0.0,0.0,70,0.00,,CLR,0.04,VWS V12.08,2013-01-26 18:24:00,
2013-01-26 13:29:00,41.2,31.8,30.16,ESE,112,0.0,0.0,69,0.00,,CLR,0.04,VWS V12.08,2013-01-26 18:29:00,
2013-01-26 13:34:00,41.5,31.8,30.16,ESE,112,0.0,0.0,68,0.00,,CLR,0.04,VWS V12.08,2013-01-26 18:34:00,
2013-01-26 13:39:00,41.7,31.6,30.15,ESE,112,0.0,0.0,67,0.00,,CLR,0.04,VWS V12.08,2013-01-26 18:39:00,
2013-01-26 13:44:00,42.1,31.2,30.15,ESE,112,0.0,0.0,65,0.00,,CLR,0.06,VWS V12.08,2013-01-26 18:44:00,
2013-01-26 13:49:00,42.4,31.1,30.15,ESE,112,0.0,0.0,64,0.02,,CLR,0.06,VWS V12.08,2013-01-26 18:49:00,
2013-01-26 13:54:00,42.6,30.9,30.15,ESE,112,0.0,0.0,63,0.02,,CLR,0.06,VWS V12.08,2013-01-26 18:54:00,
2013-01-26 13:59:00,42.6,30.9,30.15,ENE,68,0.0,0.0,63,0.02,,CLR,0.06,VWS V12.08,2013-01-26 18:59:00,
2013-01-26 14:04:00,43.0,31.6,30.15,ENE,68,0.0,0.0,64,0.02,,CLR,0.06,VWS V12.08,2013-01-26 19:04:00,
2013-01-26 14:09:00,43.2,31.4,30.15,ENE,68,0.0,0.0,63,0.02,,CLR,0.06,VWS V12.08,2013-01-26 19:09:00,
2013-01-26 14:14:00,43.5,31.0,30.14,NE,45,0.0,0.0,61,0.02,,CLR,0.06,VWS V12.08,2013-01-26 19:14:00,
2013-01-26 14:19:00,43.7,31.1,30.14,ENE,68,0.0,0.0,61,0.02,,CLR,0.06,VWS V12.08,2013-01-26 19:19:00,
2013-01-26 14:24:00,43.7,31.1,30.14,ENE,68,0.0,0.0,61,0.02,,CLR,0.06,VWS V12.08,2013-01-26 19:24:00,
2013-01-26 14:29:00,43.9,30.9,30.14,ENE,68,0.0,0.0,60,0.02,,CLR,0.06,VWS V12.08,2013-01-26 19:29:00,
2013-01-26 14:34:00,44.1,30.7,30.15,ENE,68,0.0,0.0,59,0.02,,CLR,0.06,VWS V12.08,2013-01-26 19:34:00,
2013-01-26 14:39:00,44.2,31.2,30.15,ENE,68,0.0,0.0,60,0.02,,CLR,0.06,VWS V12.08,2013-01-26 19:39:00,
2013-01-26 14:44:00,44.2,30.8,30.15,ENE,68,0.0,0.0,59,0.00,,CLR,0.06,VWS V12.08,2013-01-26 19:44:00,
2013-01-26 14:49:00,44.2,30.8,30.15,ENE,68,0.0,0.0,59,0.00,,CLR,0.06,VWS V12.08,2013-01-26 19:49:00,
2013-01-26 14:54:00,44.2,30.8,30.15,ENE,68,0.0,0.0,59,0.00,,CLR,0.06,VWS V12.08,2013-01-26 19:54:00,
2013-01-26 14:59:00,44.2,30.8,30.15,ENE,68,0.0,0.0,59,0.00,,CLR,0.06,VWS V12.08,2013-01-26 19:59:00,
2013-01-26 15:04:00,44.1,30.7,30.15,ENE,68,0.0,0.0,59,0.00,,CLR,0.06,VWS V12.08,2013-01-26 20:04:00,
2013-01-26 15:09:00,44.2,31.2,30.15,ENE,68,0.0,0.0,60,0.00,,CLR,0.06,VWS V12.08,2013-01-26 20:09:00,
2013-01-26 15:14:00,44.2,31.2,30.15,ENE,68,0.0,0.0,60,0.00,,CLR,0.06,VWS V12.08,2013-01-26 20:14:00,
2013-01-26 15:19:00,44.2,31.2,30.15,ENE,68,0.0,0.0,60,0.00,,CLR,0.06,VWS V12.08,2013-01-26 20:19:00,
2013-01-26 15:24:00,43.9,30.5,30.15,ENE,68,0.0,0.0,59,0.00,,CLR,0.06,VWS V12.08,2013-01-26 20:24:00,
2013-01-26 15:29:00,43.9,30.5,30.16,ENE,68,0.0,0.0,59,0.00,,CLR,0.06,VWS V12.08,2013-01-26 20:29:00,
2013-01-26 15:34:00,43.9,30.5,30.15,ENE,68,0.0,0.0,59,0.00,,CLR,0.06,VWS V12.08,2013-01-26 20:34:00,
2013-01-26 15:39:00,43.9,30.5,30.16,ENE,68,0.0,0.0,59,0.00,,CLR,0.06,VWS V12.08,2013-01-26 20:39:00,
2013-01-26 15:44:00,43.9,30.5,30.16,ENE,68,0.0,0.0,59,0.00,,CLR,0.06,VWS V12.08,2013-01-26 20:44:00,
2013-01-26 15:49:00,43.9,30.1,30.16,ENE,68,0.0,0.0,58,0.00,,CLR,0.06,VWS V12.08,2013-01-26 20:49:00,
2013-01-26 15:54:00,43.9,30.1,30.16,ENE,68,0.0,0.0,58,0.00,,CLR,0.06,VWS V12.08,2013-01-26 20:54:00,
2013-01-26 15:59:00,43.9,30.1,30.16,ENE,68,0.0,0.0,58,0.00,,CLR,0.06,VWS V12.08,2013-01-26 20:59:00,
2013-01-26 16:04:00,43.9,30.1,30.16,ENE,68,0.0,0.0,58,0.00,,CLR,0.06,VWS V12.08,2013-01-26 21:04:00,
2013-01-26 16:09:00,43.9,29.6,30.16,ENE,68,0.0,0.0,57,0.00,,CLR,0.06,VWS V12.08,2013-01-26 21:09:00,
2013-01-26 16:14:00,43.9,29.6,30.17,ENE,68,0.0,0.0,57,0.00,,CLR,0.06,VWS V12.08,2013-01-26 21:14:00,
2013-01-26 16:19:00,43.5,29.7,30.17,ENE,68,0.0,0.0,58,0.00,,CLR,0.06,VWS V12.08,2013-01-26 21:19:00,
2013-01-26 16:24:00,43.5,29.7,30.16,ENE,68,0.0,0.0,58,0.00,,CLR,0.06,VWS V12.08,2013-01-26 21:24:00,
2013-01-26 16:29:00,43.5,29.7,30.17,ENE,68,0.0,0.0,58,0.00,,CLR,0.06,VWS V12.08,2013-01-26 21:29:00,
2013-01-26 16:34:00,43.5,29.7,30.17,ENE,68,0.0,0.0,58,0.00,,CLR,0.06,VWS V12.08,2013-01-26 21:34:00,
2013-01-26 16:39:00,43.2,29.4,30.17,ENE,68,0.0,0.0,58,0.00,,CLR,0.06,VWS V12.08,2013-01-26 21:39:00,
2013-01-26 16:44:00,43.2,29.8,30.17,ENE,68,0.0,0.0,59,0.00,,CLR,0.06,VWS V12.08,2013-01-26 21:44:00,
2013-01-26 16:49:00,43.2,29.8,30.17,ENE,68,0.0,0.0,59,0.00,,CLR,0.06,VWS V12.08,2013-01-26 21:49:00,
2013-01-26 16:54:00,42.6,29.7,30.17,ENE,68,0.0,0.0,60,0.00,,CLR,0.06,VWS V12.08,2013-01-26 21:54:00,
2013-01-26 16:59:00,42.6,30.1,30.18,ENE,68,0.0,0.0,61,0.00,,CLR,0.06,VWS V12.08,2013-01-26 21:59:00,
2013-01-26 17:04:00,42.6,30.1,30.18,ENE,68,0.0,0.0,61,0.00,,CLR,0.06,VWS V12.08,2013-01-26 22:04:00,
2013-01-26 17:09:00,42.1,30.0,30.18,ENE,68,0.0,0.0,62,0.00,,CLR,0.06,VWS V12.08,2013-01-26 22:09:00,
2013-01-26 17:14:00,42.1,30.0,30.18,ENE,68,0.0,0.0,62,0.00,,CLR,0.06,VWS V12.08,2013-01-26 22:14:00,
2013-01-26 17:19:00,41.7,29.7,30.18,ENE,68,0.0,0.0,62,0.00,,CLR,0.06,VWS V12.08,2013-01-26 22:19:00,
2013-01-26 17:24:00,41.4,29.7,30.18,ENE,68,0.0,0.0,63,0.00,,CLR,0.06,VWS V12.08,2013-01-26 22:24:00,
2013-01-26 17:29:00,41.0,29.8,30.18,ENE,68,0.0,0.0,64,0.00,,CLR,0.06,VWS V12.08,2013-01-26 22:29:00,
2013-01-26 17:34:00,40.8,29.6,30.19,ENE,68,0.0,0.0,64,0.00,,CLR,0.06,VWS V12.08,2013-01-26 22:34:00,
2013-01-26 17:39:00,40.6,29.8,30.19,ENE,68,0.0,0.0,65,0.00,,CLR,0.06,VWS V12.08,2013-01-26 22:39:00,
2013-01-26 17:44:00,40.1,29.3,30.19,ENE,68,0.0,0.0,65,0.00,,CLR,0.06,VWS V12.08,2013-01-26 22:44:00,
2013-01-26 17:49:00,39.9,29.5,30.19,ENE,68,0.0,0.0,66,0.00,,CLR,0.06,VWS V12.08,2013-01-26 22:49:00,
2013-01-26 17:54:00,39.9,29.5,30.19,ENE,68,0.0,0.0,66,0.00,,CLR,0.06,VWS V12.08,2013-01-26 22:54:00,
2013-01-26 17:59:00,39.9,29.5,30.19,ENE,68,0.0,0.0,66,0.00,,CLR,0.06,VWS V12.08,2013-01-26 22:59:00,
2013-01-26 18:04:00,39.9,29.9,30.19,ENE,68,0.0,0.0,67,0.00,,CLR,0.06,VWS V12.08,2013-01-26 23:04:00,
2013-01-26 18:09:00,39.0,29.4,30.19,ENE,68,0.0,0.0,68,0.00,,CLR,0.06,VWS V12.08,2013-01-26 23:09:00,
2013-01-26 18:14:00,38.8,29.2,30.20,ENE,68,0.0,0.0,68,0.00,,CLR,0.06,VWS V12.08,2013-01-26 23:14:00,
2013-01-26 18:19:00,38.5,29.2,30.20,ENE,68,0.0,0.0,69,0.00,,CLR,0.06,VWS V12.08,2013-01-26 23:19:00,
2013-01-26 18:24:00,38.5,29.2,30.20,ENE,68,0.0,0.0,69,0.00,,CLR,0.06,VWS V12.08,2013-01-26 23:24:00,
2013-01-26 18:29:00,38.1,28.9,30.20,East,90,0.0,0.0,69,0.00,,CLR,0.06,VWS V12.08,2013-01-26 23:29:00,
2013-01-26 18:34:00,37.9,29.0,30.21,East,90,0.0,0.0,70,0.00,,CLR,0.06,VWS V12.08,2013-01-26 23:34:00,
2013-01-26 18:39:00,37.8,28.9,30.21,East,90,0.0,0.0,70,0.00,,CLR,0.06,VWS V12.08,2013-01-26 23:39:00,
2013-01-26 18:44:00,37.8,28.9,30.21,East,90,0.0,0.0,70,0.00,,CLR,0.06,VWS V12.08,2013-01-26 23:44:00,
2013-01-26 18:49:00,37.4,28.9,30.21,East,90,0.0,0.0,71,0.00,,CLR,0.06,VWS V12.08,2013-01-26 23:49:00,
2013-01-26 18:54:00,37.2,28.7,30.22,East,90,0.0,0.0,71,0.00,,CLR,0.06,VWS V12.08,2013-01-26 23:54:00,
2013-01-26 18:59:00,37.2,28.7,30.22,East,90,0.0,0.0,71,0.00,,CLR,0.06,VWS V12.08,2013-01-26 23:59:00,
2013-01-26 19:04:00,37.2,28.7,30.22,East,90,0.0,0.0,71,0.00,,CLR,0.06,VWS V12.08,2013-01-27 00:04:00,
2013-01-26 19:09:00,37.0,28.9,30.22,East,90,0.0,0.0,72,0.00,,CLR,0.06,VWS V12.08,2013-01-27 00:09:00,
2013-01-26 19:14:00,37.0,28.9,30.21,East,90,0.0,0.0,72,0.00,,CLR,0.06,VWS V12.08,2013-01-27 00:14:00,
2013-01-26 19:19:00,36.7,28.5,30.22,East,90,0.0,0.0,72,0.00,,CLR,0.06,VWS V12.08,2013-01-27 00:19:00,
2013-01-26 19:24:00,36.5,28.4,30.22,ENE,68,0.0,0.0,72,0.00,,CLR,0.06,VWS V12.08,2013-01-27 00:24:00,
2013-01-26 19:29:00,36.1,28.0,30.22,ENE,68,0.0,0.0,72,0.00,,CLR,0.06,VWS V12.08,2013-01-27 00:29:00,
2013-01-26 19:34:00,35.8,28.0,30.22,ENE,68,0.0,0.0,73,0.00,,CLR,0.06,VWS V12.08,2013-01-27 00:34:00,
2013-01-26 19:39:00,35.4,27.6,30.22,ENE,68,0.0,0.0,73,0.00,,CLR,0.06,VWS V12.08,2013-01-27 00:39:00,
2013-01-26 19:44:00,35.4,28.0,30.22,ENE,68,0.0,0.0,74,0.00,,CLR,0.06,VWS V12.08,2013-01-27 00:44:00,
2013-01-26 19:49:00,35.2,27.8,30.22,ENE,68,0.0,0.0,74,0.00,,CLR,0.06,VWS V12.08,2013-01-27 00:49:00,
2013-01-26 19:54:00,35.2,27.8,30.22,ENE,68,0.0,0.0,74,0.00,,CLR,0.06,VWS V12.08,2013-01-27 00:54:00,
2013-01-26 19:59:00,34.9,27.5,30.22,ENE,68,0.0,0.0,74,0.00,,CLR,0.06,VWS V12.08,2013-01-27 00:59:00,
2013-01-26 20:04:00,34.9,27.8,30.23,ENE,68,0.0,0.0,75,0.00,,CLR,0.06,VWS V12.08,2013-01-27 01:04:00,
2013-01-26 20:09:00,34.7,27.6,30.23,ENE,68,0.0,0.0,75,0.00,,CLR,0.06,VWS V12.08,2013-01-27 01:09:00,
2013-01-26 20:14:00,34.3,27.2,30.23,ENE,68,0.0,0.0,75,0.00,,CLR,0.06,VWS V12.08,2013-01-27 01:14:00,
2013-01-26 20:19:00,34.3,27.2,30.23,ENE,68,0.0,0.0,75,0.00,,CLR,0.06,VWS V12.08,2013-01-27 01:19:00,
2013-01-26 20:24:00,34.3,27.2,30.24,ENE,68,0.0,0.0,75,0.00,,CLR,0.06,VWS V12.08,2013-01-27 01:24:00,
2013-01-26 20:29:00,34.3,27.2,30.23,ENE,68,0.0,0.0,75,0.00,,CLR,0.06,VWS V12.08,2013-01-27 01:29:00,
2013-01-26 20:34:00,34.2,27.4,30.23,ENE,68,0.0,0.0,76,0.00,,CLR,0.06,VWS V12.08,2013-01-27 01:34:00,
2013-01-26 20:39:00,34.0,27.2,30.24,ENE,68,0.0,0.0,76,0.00,,CLR,0.06,VWS V12.08,2013-01-27 01:39:00,
2013-01-26 20:44:00,34.0,27.2,30.24,ENE,68,0.0,0.0,76,0.00,,CLR,0.06,VWS V12.08,2013-01-27 01:44:00,
2013-01-26 20:49:00,34.0,27.2,30.24,ENE,68,0.0,0.0,76,0.00,,CLR,0.06,VWS V12.08,2013-01-27 01:49:00,
2013-01-26 20:54:00,33.6,26.9,30.24,ENE,68,0.0,0.0,76,0.00,,CLR,0.06,VWS V12.08,2013-01-27 01:54:00,
2013-01-26 20:59:00,33.6,26.9,30.24,ENE,68,0.0,0.0,76,0.00,,CLR,0.06,VWS V12.08,2013-01-27 01:59:00,
2013-01-26 21:04:00,33.3,26.5,30.24,ENE,68,0.0,0.0,76,0.00,,CLR,0.06,VWS V12.08,2013-01-27 02:04:00,
2013-01-26 21:09:00,32.7,26.0,30.24,ENE,68,0.0,0.0,76,0.00,,CLR,0.06,VWS V12.08,2013-01-27 02:09:00,
2013-01-26 21:15:00,32.5,25.8,30.24,ENE,68,0.0,0.0,76,0.00,,CLR,0.06,VWS V12.08,2013-01-27 02:15:00,
2013-01-26 21:20:00,32.2,25.5,30.24,ENE,68,0.0,0.0,76,0.00,,CLR,0.06,VWS V12.08,2013-01-27 02:20:00,
2013-01-26 21:25:00,31.8,25.1,30.25,ENE,68,0.0,0.0,76,0.00,,CLR,0.06,VWS V12.08,2013-01-27 02:25:00,
2013-01-26 21:30:00,31.6,25.0,30.25,ENE,68,0.0,0.0,76,0.00,,CLR,0.06,VWS V12.08,2013-01-27 02:30:00,
2013-01-26 21:35:00,31.6,25.3,30.25,ENE,68,0.0,0.0,77,0.00,,CLR,0.06,VWS V12.08,2013-01-27 02:35:00,
2013-01-26 21:40:00,31.3,24.9,30.26,ENE,68,0.0,0.0,77,0.00,,CLR,0.06,VWS V12.08,2013-01-27 02:40:00,
2013-01-26 21:45:00,31.3,24.9,30.26,ENE,68,0.0,0.0,77,0.00,,CLR,0.06,VWS V12.08,2013-01-27 02:45:00,
2013-01-26 21:50:00,31.3,24.9,30.26,ENE,68,0.0,0.0,77,0.00,,CLR,0.06,VWS V12.08,2013-01-27 02:50:00,
2013-01-26 21:55:00,30.7,24.7,30.26,ENE,68,0.0,0.0,78,0.00,,CLR,0.06,VWS V12.08,2013-01-27 02:55:00,
2013-01-26 22:00:00,30.7,24.7,30.26,ENE,68,0.0,0.0,78,0.00,,CLR,0.06,VWS V12.08,2013-01-27 03:00:00,
2013-01-26 22:05:00,30.6,24.5,30.26,ENE,68,0.0,0.0,78,0.00,,CLR,0.06,VWS V12.08,2013-01-27 03:05:00,
2013-01-26 22:10:00,30.6,24.5,30.27,ENE,68,0.0,0.0,78,0.00,,CLR,0.06,VWS V12.08,2013-01-27 03:10:00,
2013-01-26 22:15:00,30.4,24.4,30.27,ENE,68,0.0,0.0,78,0.00,,CLR,0.06,VWS V12.08,2013-01-27 03:15:00,
2013-01-26 22:20:00,30.0,24.0,30.27,ENE,68,0.0,0.0,78,0.00,,CLR,0.06,VWS V12.08,2013-01-27 03:20:00,
2013-01-26 22:25:00,30.0,24.0,30.27,ENE,68,0.0,0.0,78,0.00,,CLR,0.06,VWS V12.08,2013-01-27 03:25:00,
2013-01-26 22:30:00,30.0,24.0,30.27,ENE,68,0.0,0.0,78,0.00,,CLR,0.06,VWS V12.08,2013-01-27 03:30:00,
2013-01-26 22:35:00,30.0,24.0,30.27,ENE,68,0.0,0.0,78,0.00,,CLR,0.06,VWS V12.08,2013-01-27 03:35:00,
2013-01-26 22:40:00,29.8,23.8,30.28,ENE,68,0.0,0.0,78,0.00,,CLR,0.06,VWS V12.08,2013-01-27 03:40:00,
2013-01-26 22:45:00,29.8,23.8,30.28,ENE,68,0.0,0.0,78,0.00,,CLR,0.06,VWS V12.08,2013-01-27 03:45:00,
2013-01-26 22:50:00,29.7,24.0,30.29,ENE,68,0.0,0.0,79,0.00,,CLR,0.06,VWS V12.08,2013-01-27 03:50:00,
2013-01-26 22:55:00,29.7,24.0,30.29,ENE,68,0.0,0.0,79,0.00,,CLR,0.06,VWS V12.08,2013-01-27 03:55:00,
2013-01-26 23:00:00,29.5,23.8,30.29,ENE,68,0.0,0.0,79,0.00,,CLR,0.06,VWS V12.08,2013-01-27 04:00:00,
2013-01-26 23:05:00,29.3,23.6,30.29,ENE,68,0.0,0.0,79,0.00,,CLR,0.06,VWS V12.08,2013-01-27 04:05:00,
2013-01-26 23:10:00,29.1,23.4,30.30,ENE,68,0.0,0.0,79,0.00,,CLR,0.06,VWS V12.08,2013-01-27 04:10:00,
2013-01-26 23:15:00,29.1,23.4,30.29,ENE,68,0.0,0.0,79,0.00,,CLR,0.06,VWS V12.08,2013-01-27 04:15:00,
2013-01-26 23:20:00,29.1,23.4,30.30,ENE,68,0.0,0.0,79,0.00,,CLR,0.06,VWS V12.08,2013-01-27 04:20:00,
2013-01-26 23:25:00,29.1,23.4,30.30,ENE,68,0.0,0.0,79,0.00,,CLR,0.06,VWS V12.08,2013-01-27 04:25:00,
2013-01-26 23:30:00,28.9,23.3,30.30,ENE,68,0.0,0.0,79,0.00,,CLR,0.06,VWS V12.08,2013-01-27 04:30:00,
2013-01-26 23:35:00,28.9,23.3,30.30,ENE,68,0.0,0.0,79,0.00,,CLR,0.06,VWS V12.08,2013-01-27 04:35:00,
2013-01-26 23:40:00,28.9,23.3,30.30,ENE,68,0.0,0.0,79,0.00,,CLR,0.06,VWS V12.08,2013-01-27 04:40:00,
2013-01-26 23:45:00,28.8,23.1,30.30,ENE,68,0.0,0.0,79,0.00,,CLR,0.06,VWS V12.08,2013-01-27 04:45:00,
2013-01-26 23:50:00,28.8,23.1,30.31,ENE,68,0.0,0.0,79,0.00,,CLR,0.06,VWS V12.08,2013-01-27 04:50:00,
2013-01-26 23:55:00,28.8,23.1,30.31,ENE,68,0.0,0.0,79,0.00,,CLR,0.06,VWS V12.08,2013-01-27 04:55:00,